Stations météo

Publicité
Hyeres, France (7667): Température de l'air & dewpoint: 06.12.2018 19:00:00 - 12.12.2018 19:00:00 (CET)Hyeres, France (7667): Température de l'air 5cm: 06.12.2018 19:00:00 - 12.12.2018 19:00:00 (CET)Hyeres, France (7667): Vitesse du vent & gusts: 06.12.2018 19:00:00 - 12.12.2018 19:00:00 (CET)Hyeres, France (7667): Direction du vent: 06.12.2018 19:00:00 - 12.12.2018 19:00:00 (CET)Hyeres, France (7667): reduced air pressure: 06.12.2018 19:00:00 - 12.12.2018 19:00:00 (CET)Hyeres, France (7667): visibility: 06.12.2018 19:00:00 - 12.12.2018 19:00:00 (CET)Hyeres, France (7667): Quantités de précipitations: 06.12.2018 19:00:00 - 12.12.2018 19:00:00 (CET)
Date & Time tt [°C] td [°C] tt 5cm [°C] ff [km/h] ff [knt] fx [km/h] fx [knt] dd ppp [hPa] vv [km] rr [mm]
12.12.2018 19:00:00 9,6 7,0 3,4 8 4 13 7 NW 1015,9 11 0,0
12.12.2018 18:00:00 9,2 6,6 2,5 4 2 9 5 N 1016,0 14 0,0
12.12.2018 17:00:00 10,2 6,9 5,4 8 5 13 7 NE 1015,9 48 0,0
12.12.2018 16:00:00 13,7 7,9 10,8 5 3 14 7 ENE 1016,0 59 0,0
12.12.2018 15:00:00 14,5 7,5 14,7 6 3 13 7 SSE 1016,1 19 0,0
12.12.2018 14:00:00 15,5 7,5 17,1 6 4 12 6 SSE 1016,5 16 0,0
12.12.2018 13:00:00 13,7 7,5 12,8 5 3 13 7 WNW 1016,9 15 0,0
12.12.2018 12:00:00 12,3 7,4 12,1 10 6 13 7 WNW 1017,6 38 0,0
12.12.2018 11:00:00 11,6 6,9 11,6 8 4 15 8 NW 1018,1 9 0,0
12.12.2018 10:00:00 10,9 6,4 7,6 11 6 16 9 NW 1018,1 20 0,0
12.12.2018 09:00:00 8,7 5,4 4,5 10 5 14 8 NW 1017,8 56 0,0
12.12.2018 08:00:00 7,1 4,4 4,0 12 6 18 10 NW 1017,3 60 0,0
12.12.2018 07:00:00 7,4 4,0 4,4 11 6 17 9 NW 1017,2 60 0,0
12.12.2018 06:00:00 7,5 3,9 4,4 12 6 16 9 NW 1017,1 60 0,0
12.12.2018 05:00:00 8,1 3,9 4,0 13 7 17 9 NW 1017,5 60 0,0
12.12.2018 04:00:00 7,8 3,5 4,5 10 5 16 9 NW 1017,7 60 0,0
12.12.2018 03:00:00 9,4 4,0 5,1 11 6 17 9 NW 1018,0 60 0,0
12.12.2018 02:00:00 8,5 3,5 4,9 12 7 18 10 NW 1017,9 60 0,0
12.12.2018 01:00:00 8,1 3,9 4,0 13 7 18 10 NW 1018,1 60 0,0
12.12.2018 00:00:00 7,6 3,6 3,5 12 6 16 9 NW 1018,4 60 0,0
11.12.2018 23:00:00 7,6 3,8 4,0 12 7 16 9 NW 1018,5 59 0,0
11.12.2018 22:00:00 8,8 4,8 3,5 10 5 13 7 NW 1018,2 58 0,0
11.12.2018 21:00:00 8,4 5,3 3,7 5 3 15 8 NNW 1018,1 40 0,0
11.12.2018 20:00:00 7,8 5,4 2,3 7 4 10 6 NW 1018,0 48 0,0
11.12.2018 19:00:00 8,7 5,6 2,3 7 4 13 7 N 1017,6 11 0,0
11.12.2018 18:00:00 9,2 5,6 3,5 8 4 20 11 N 1017,5 25 0,0
11.12.2018 17:00:00 11,4 6,1 6,1 9 5 13 7 NE 1017,1 60 0,0
11.12.2018 16:00:00 13,9 6,7 11,5 10 5 21 12 NE 1017,0 51 0,0
11.12.2018 15:00:00 15,0 6,5 13,6 9 5 22 12 NE 1017,2 56 0,0
11.12.2018 14:00:00 15,3 5,8 17,9 15 8 23 12 N 1017,4 20 0,0
11.12.2018 13:00:00 14,9 5,4 17,5 13 7 26 14 N 1017,8 47 0,0
11.12.2018 12:00:00 13,8 3,8 16,4 14 8 26 14 NNW 1018,2 56 0,0
11.12.2018 11:00:00 12,5 2,1 13,6 17 9 32 17 N 1018,5 49 0,0
11.12.2018 10:00:00 10,6 1,1 5,9 16 8 27 15 NNW 1018,4 60 0,0
11.12.2018 09:00:00 8,3 0,7 3,6 15 8 24 13 WNW 1018,4 55 0,0
11.12.2018 08:00:00 7,5 0,0 3,4 11 6 24 13 NW 1018,3 60 0,0
11.12.2018 07:00:00 8,4 0,1 4,6 12 7 34 18 NNW 1018,2 60 0,0
11.12.2018 06:00:00 9,1 0,0 6,2 23 12 44 24 NNW 1018,0 60 0,0
11.12.2018 05:00:00 9,4 0,0 5,9 27 14 52 28 NNW 1018,2 60 0,0
11.12.2018 04:00:00 9,7 0,3 6,5 24 13 61 33 NNW 1018,3 60 0,0
11.12.2018 03:00:00 9,9 -0,1 3,9 26 14 47 25 NNW 1018,8 60 0,0
11.12.2018 02:00:00 9,8 -0,1 5,2 9 5 42 23 WNW 1019,2 60 0,0
11.12.2018 01:00:00 10,4 0,1 7,5 28 15 48 26 NW 1019,0 60 0,0
11.12.2018 00:00:00 10,5 0,2 7,2 30 16 52 28 NW 1019,5 60 0,0
10.12.2018 23:00:00 10,5 0,5 6,7 22 12 45 24 NNW 1019,8 60 0,0
10.12.2018 22:00:00 10,5 0,5 6,9 18 10 44 24 NNW 1020,2 60 0,0
10.12.2018 21:00:00 11,0 0,4 7,8 25 14 52 28 NNW 1019,9 60 0,0
10.12.2018 20:00:00 11,5 0,6 6,9 27 15 54 29 NW 1020,0 60 0,0
10.12.2018 19:00:00 11,8 0,5 7,3 14 8 43 23 WNW 1020,4 60 0,0
10.12.2018 18:00:00 12,4 1,7 9,2 33 18 66 36 WNW 1019,8 60 0,0
10.12.2018 17:00:00 13,4 -0,3 10,5 39 21 63 34 WNW 1019,3 60 0,0
10.12.2018 16:00:00 14,5 -0,4 12,9 31 17 62 33 WNW 1019,6 26 0,0
10.12.2018 15:00:00 15,2 -0,2 15,0 33 18 54 29 NW 1020,1 25 0,0
10.12.2018 14:00:00 15,3 1,0 15,6 30 16 51 27 NW 1020,8 25 0,0
10.12.2018 13:00:00 15,3 2,4 15,4 27 15 53 29 NW 1021,4 30 0,0
10.12.2018 12:00:00 14,9 1,4 15,5 27 15 59 32 NW 1022,0 34 0,0
10.12.2018 11:00:00 14,5 1,4 14,5 26 14 48 26 NW 1022,5 37 0,0
10.12.2018 10:00:00 13,9 0,2 10,0 27 15 55 30 NNW 1021,7 38 0,0
10.12.2018 09:00:00 13,0 0,0 8,9 31 17 53 28 NW 1021,1 43 0,0
10.12.2018 08:00:00 12,7 -0,6 8,2 26 14 55 30 NW 1020,3 60 0,0
10.12.2018 07:00:00 12,5 -0,4 8,6 30 16 74 40 NW 1019,7 60 0,0
10.12.2018 06:00:00 12,7 0,4 9,0 22 12 54 29 WNW 1020,0 60 0,0
10.12.2018 05:00:00 12,9 0,9 9,5 29 16 62 33 WNW 1020,1 60 0,0
10.12.2018 04:00:00 13,0 1,0 9,1 30 16 55 30 WNW 1020,3 60 0,0
10.12.2018 03:00:00 13,5 1,2 9,9 29 16 62 33 NW 1020,6 60 0,0
10.12.2018 02:00:00 13,7 1,3 10,3 29 16 64 34 NW 1020,6 60 0,0
10.12.2018 01:00:00 13,5 1,8 10,2 29 16 76 41 NW 1020,4 60 0,0
10.12.2018 00:00:00 13,9 2,1 10,6 33 18 77 41 NW 1020,5 60 0,0
09.12.2018 23:00:00 13,9 2,1 10,7 38 21 77 41 WNW 1020,0 60 0,0
09.12.2018 22:00:00 13,8 2,1 10,2 33 18 66 35 WNW 1020,3 60 0,0
09.12.2018 21:00:00 13,5 2,1 10,4 31 17 78 42 WNW 1020,3 60 0,0
09.12.2018 20:00:00 14,6 1,8 11,1 37 20 82 44 NW 1019,5 60 0,0
09.12.2018 19:00:00 14,5 2,4 11,0 41 22 71 38 WNW 1018,5 60 0,0
09.12.2018 18:00:00 14,6 4,0 11,4 37 20 67 36 WNW 1018,4 60 0,0
09.12.2018 17:00:00 15,5 3,9 11,4 34 18 64 35 WNW 1017,9 60 0,0
09.12.2018 16:00:00 15,7 6,7 13,1 28 15 65 35 WNW 1017,5 48 0,0
09.12.2018 15:00:00 16,1 7,0 14,1 28 15 66 36 W 1016,8 50 0,0
09.12.2018 14:00:00 16,6 7,0 15,3 35 19 66 36 W 1016,8 52 0,0
09.12.2018 13:00:00 16,3 7,0 14,0 37 20 68 37 W 1017,4 50 0,0
09.12.2018 12:00:00 16,4 7,3 14,9 27 15 51 28 W 1017,7 53 0,0
09.12.2018 11:00:00 16,4 7,9 14,5 28 15 63 34 W 1018,3 60 0,0
09.12.2018 10:00:00 15,4 8,6 12,1 35 19 55 30 WSW 1018,3 55 0,0
09.12.2018 09:00:00 14,2 7,5 11,2 33 18 51 27 WSW 1018,5 60 0,0
09.12.2018 08:00:00 13,7 7,0 10,8 34 18 54 29 W 1018,7 60 0,0
09.12.2018 07:00:00 14,0 7,3 10,8 28 15 51 27 W 1018,5 60 0,0
09.12.2018 06:00:00 13,7 7,5 10,1 44 24 59 32 W 1018,4 60 0,0
09.12.2018 05:00:00 13,2 7,0 10,4 35 19 52 28 W 1018,1 60 0,0
09.12.2018 04:00:00 13,7 6,5 6,5 32 18 47 25 W 1018,7 60 0,0
09.12.2018 03:00:00 12,5 6,1 8,9 19 10 33 18 WNW 1019,4 60 0,0
09.12.2018 02:00:00 13,6 5,2 10,0 10 5 27 15 NNW 1019,3 60 0,0
09.12.2018 01:00:00 12,9 5,6 8,4 11 6 33 18 WNW 1019,5 60 0,0
09.12.2018 00:00:00 12,4 5,3 8,0 27 14 37 20 WSW 1020,2 60 0,0
08.12.2018 23:00:00 12,0 4,2 8,5 17 9 33 18 W 1020,1 60 0,0
08.12.2018 22:00:00 13,7 3,2 10,4 16 9 42 23 W 1020,4 60 0,0
08.12.2018 21:00:00 14,4 2,6 9,5 27 15 50 27 W 1020,2 60 0,0
08.12.2018 20:00:00 14,3 2,2 10,6 26 14 54 29 NW 1020,1 60 0,0
08.12.2018 19:00:00 14,3 1,5 10,6 32 17 64 35 NW 1020,0 60 0,0
08.12.2018 18:00:00 14,2 1,1 10,6 36 20 72 39 NW 1019,4 60 0,0
08.12.2018 17:00:00 14,4 1,3 11,1 33 18 64 34 NW 1019,2 60 0,0
08.12.2018 16:00:00 15,1 1,9 13,8 24 13 67 36 NW 1019,4 59 0,0
08.12.2018 15:00:00 15,5 1,2 15,1 26 14 80 43 WNW 1019,3 29 0,0
08.12.2018 14:00:00 15,2 1,3 15,2 48 26 81 44 NW 1019,1 17 0,0
08.12.2018 13:00:00 15,0 0,8 15,1 39 21 72 39 NW 1019,5 24 0,0
08.12.2018 12:00:00 14,7 0,1 14,5 37 20 71 38 NW 1020,1 20 0,0
08.12.2018 11:00:00 13,9 0,2 13,4 37 20 69 38 NW 1020,7 45 0,0
08.12.2018 10:00:00 13,0 -1,0 9,8 36 19 57 31 NW 1020,8 20 0,0
08.12.2018 09:00:00 11,9 -1,3 8,8 34 19 61 33 NW 1020,6 60 0,0
08.12.2018 08:00:00 11,8 -1,4 8,5 35 19 58 31 WNW 1020,0 60 0,0
08.12.2018 07:00:00 11,9 -2,0 8,3 33 18 67 36 WNW 1019,2 60 0,0
08.12.2018 06:00:00 11,8 -2,8 8,5 38 20 73 39 WNW 1018,6 60 0,0
08.12.2018 05:00:00 11,8 -1,0 8,9 31 17 72 39 NW 1018,2 60 0,0
08.12.2018 04:00:00 12,9 -1,1 9,7 44 24 87 47 WNW 1017,3 60 0,0
08.12.2018 03:00:00 13,0 0,4 9,9 35 19 62 33 WNW 1017,6 60 0,0
08.12.2018 02:00:00 13,8 1,1 10,6 37 20 72 39 WNW 1016,9 60 0,0
08.12.2018 01:00:00 14,1 4,9 10,1 30 16 60 33 WNW 1016,9 60 0,0
08.12.2018 00:00:00 13,6 7,1 10,1 19 10 42 23 WNW 1017,3 60 0,0
07.12.2018 23:00:00 14,4 7,0 10,9 32 17 55 30 W 1017,9 60 0,0
07.12.2018 22:00:00 14,6 6,4 11,6 38 21 59 32 W 1018,2 60 0,0
07.12.2018 21:00:00 14,5 6,3 11,2 32 17 54 29 W 1018,2 60 0,0
07.12.2018 20:00:00 14,2 7,5 9,2 32 17 52 28 W 1018,8 60 0,0
07.12.2018 19:00:00 13,8 8,2 9,4 14 8 39 21 W 1019,2 60 0,0
07.12.2018 18:00:00 13,9 8,9 10,8 25 13 50 27 W 1019,8 60 0,0
07.12.2018 17:00:00 14,2 10,2 11,4 26 14 42 23 W 1019,3 60 0,0
07.12.2018 16:00:00 15,6 10,4 15,0 27 14 38 20 SW 1019,0 60 0,0
07.12.2018 15:00:00 16,7 11,0 17,6 21 12 34 18 WSW 1019,9 60 0,0
07.12.2018 14:00:00 16,3 11,2 16,5 21 11 35 19 SW 1020,5 20 0,0
07.12.2018 13:00:00 17,0 12,3 16,3 18 10 26 14 SW 1021,4 38 0,0
07.12.2018 12:00:00 15,4 11,8 15,7 10 5 13 7 WNW 1022,2 20 0,0
07.12.2018 11:00:00 14,8 11,8 13,5 10 5 15 8 WNW 1022,9 9 0,0
07.12.2018 10:00:00 12,7 11,3 10,7 6 3 15 8 NNW 1022,7 12 0,0
07.12.2018 09:00:00 11,9 11,0 9,4 3 2 8 5 N 1022,7 13 0,0
07.12.2018 08:00:00 10,9 10,1 8,4 3 2 9 5 NNW 1022,6 14 0,0
07.12.2018 07:00:00 9,7 9,2 7,2 4 2 10 5 N 1022,7 10 0,0
07.12.2018 06:00:00 8,3 7,9 3,9 7 4 9 5 NNE 1022,5 8 0,0
07.12.2018 05:00:00 7,6 7,0 4,1 5 3 8 5 N 1022,8 8 0,0
07.12.2018 04:00:00 9,0 8,5 5,6 6 3 9 5 N 1022,8 10 0,0
07.12.2018 03:00:00 9,5 9,0 4,0 5 3 11 6 N 1023,3 12 0,0
07.12.2018 02:00:00 7,3 6,6 4,0 5 3 9 5 N 1023,1 5 0,0
07.12.2018 01:00:00 7,8 7,0 4,4 7 4 11 6 N 1023,4 9 0,0
07.12.2018 00:00:00 8,6 8,0 4,7 5 3 10 5 N 1023,5 9 0,0
06.12.2018 23:00:00 9,6 8,8 5,6 4 2 13 7 N 1023,5 8 0,0
06.12.2018 22:00:00 9,9 9,3 5,3 6 3 10 6 NNW 1023,7 7 0,0
06.12.2018 21:00:00 9,5 8,6 5,2 3 2 8 5 NNW 1023,4 7 0,0
06.12.2018 20:00:00 10,8 9,1 5,6 7 4 9 5 NW 1022,9 8 0,0
06.12.2018 19:00:00 11,1 8,8 6,3 6 3 8 5 NNE 1022,3 8 0,0

tt = Température de l'air
td = dewpoint
tt 5cm = Température de l'air 5cm
ff = Vitesse du vent
fx = gusts
dd = Direction du vent
ppp = reduced air pressure
vv = visibility
rr = Quantités de précipitations

stations d'obs. à proximité